GFSSGP_250_spd_102.txt.gz
Wind_Speed
54 55 50 51 49 46 46 45 39 41 42 41 40 38 38 37 39 37 36 37 36 18 26 40 45 44 43 40 38 38 38 40 41 41 41 40 40 40 39 39 38 38 39 39 41 41 41 40 39
57 57 56 57 57 58 56 51 46 46 49 49 42 37 39 39 40 41 36 39 37 35 24 24 35 47 48 48 46 44 42 42 42 42 41 42 42 41 41 42 41 41 39 39 38 39 37 37 38
63 59 60 59 60 63 61 54 51 51 50 47 40 41 46 43 43 40 39 43 39 40 32 29 30 36 47 50 51 50 49 47 46 47 46 45 44 44 44 43 42 42 42 43 42 42 43 44 44
63 65 64 61 65 68 68 62 57 54 53 52 44 42 50 45 46 45 41 38 41 39 36 33 31 34 41 49 53 53 53 51 50 48 49 49 48 46 45 45 45 44 45 44 45 45 45 48 49
68 66 65 63 69 73 72 66 62 57 56 51 49 45 50 50 48 50 44 36 39 39 40 40 34 29 34 46 53 56 55 54 53 52 51 51 50 50 50 48 48 48 47 47 47 47 47 48 49
71 70 66 63 69 74 75 71 67 62 60 56 51 50 53 51 54 54 55 48 46 44 47 40 34 37 40 42 50 56 58 56 56 56 55 53 52 52 52 52 52 51 50 49 49 50 50 52 53
75 73 72 75 73 76 84 79 72 68 65 60 54 55 59 55 57 58 56 48 48 47 42 40 39 44 43 45 46 51 56 58 57 58 58 58 58 57 56 55 54 54 55 54 54 54 54 55 57
89 82 74 75 74 77 86 82 76 71 65 60 57 58 64 57 50 45 43 44 46 42 43 43 43 44 46 47 50 47 46 52 58 59 60 60 59 60 60 60 59 58 58 58 58 57 57 57 57
97 91 81 80 84 86 91 83 77 70 66 63 60 67 65 60 51 56 47 42 41 40 41 46 44 44 46 46 46 48 48 49 49 54 60 59 60 61 61 60 60 61 61 60 60 60 60 59 58
97 94 87 89 92 91 94 84 81 73 69 64 64 70 65 50 46 50 50 42 54 51 43 46 42 44 44 43 44 47 47 46 47 47 49 52 57 59 59 59 61 62 62 63 63 62 62 63 61
91 96 94 92 93 94 95 91 86 78 73 68 68 71 65 63 46 48 54 59 59 45 45 48 47 50 47 44 46 49 51 49 47 47 49 53 54 54 54 55 57 58 58 59 61 61 62 63 64
78 83 95 95 96 96 95 97 91 84 79 75 75 75 70 68 61 50 55 61 62 61 58 52 49 51 48 47 50 51 52 51 47 48 51 52 56 60 60 58 56 58 61 62 63 64 64 65 64
73 79 81 89 99 99 99 99 96 89 86 81 81 78 74 69 62 58 60 56 59 53 50 52 57 61 56 53 55 50 52 51 51 53 54 53 55 57 59 59 58 58 61 63 63 63 66 66 65
66 71 75 82 87 99 103 103 100 96 93 87 86 83 81 75 68 56 48 49 47 49 52 53 61 67 64 53 53 51 53 52 52 54 55 57 55 54 55 54 54 54 56 57 58 60 61 62 62
58 63 67 74 84 86 92 100 99 102 102 93 90 87 77 81 77 68 56 38 44 47 49 47 48 53 57 55 50 50 56 56 55 57 59 52 52 52 54 53 56 58 57 55 54 53 53 50 49
49 56 62 67 74 85 83 78 94 107 103 98 94 92 84 83 80 77 78 61 51 54 47 42 44 49 51 50 50 49 50 53 51 53 50 51 52 54 54 54 50 50 51 54 54 49 45 46 51
42 50 55 61 66 75 80 78 83 89 100 99 98 96 91 90 85 78 74 67 65 58 51 48 51 54 53 54 53 51 51 51 53 54 48 48 51 52 49 49 50 54 57 56 56 55 56 56 55
40 43 50 58 64 67 72 75 82 86 83 89 98 101 93 90 82 86 85 74 64 54 50 51 49 50 53 53 52 52 52 54 57 54 53 56 52 50 54 59 60 60 57 58 60 58 59 61 62
30 39 47 51 60 59 63 68 80 86 82 80 82 85 91 95 89 87 77 75 71 67 54 52 51 47 48 53 58 58 54 54 52 53 59 53 56 63 66 64 65 67 69 66 66 66 70 76 77
21 27 35 47 53 52 56 60 71 80 85 80 76 75 81 86 93 93 85 82 77 77 69 61 58 52 49 40 52 51 57 60 60 60 63 62 63 63 65 66 66 70 70 67 66 70 77 77 79
16 20 24 31 40 50 53 50 63 73 77 80 78 75 72 79 75 73 80 80 79 79 74 69 71 64 56 56 51 54 58 56 58 60 60 66 68 69 71 65 67 69 72 76 77 78 79 81 84
26 21 17 22 29 36 44 50 57 67 74 77 76 74 68 68 71 68 62 60 70 74 79 75 69 65 60 59 60 63 65 63 65 65 75 82 75 77 76 75 76 77 74 77 79 80 82 85 87
39 33 29 23 21 24 32 36 46 51 62 68 71 68 68 62 63 62 56 64 64 51 54 67 71 59 57 63 61 64 64 71 73 75 78 84 87 86 86 83 82 82 85 87 85 87 89 90 93
41 41 35 28 23 21 17 26 33 39 47 52 61 65 65 65 62 57 50 56 64 56 52 57 54 56 58 68 62 67 67 65 69 73 78 83 88 88 85 83 85 89 90 90 92 92 94 95 94
36 37 33 32 27 19 14 10 18 29 37 45 54 59 60 65 59 57 55 56 59 59 53 44 41 41 43 46 50 55 61 64 67 76 83 83 84 85 88 91 87 89 93 95 95 97 96 95 97
41 29 33 35 26 21 13 5 6 18 27 38 44 45 50 58 61 61 60 57 51 56 61 59 54 51 42 47 51 63 63 70 74 79 81 86 90 94 95 95 97 97 94 96 98 95 97 100 104
48 39 32 32 26 20 14 12 8 14 20 28 34 36 45 51 48 53 55 53 52 55 55 57 62 57 61 65 65 69 75 68 79 88 94 97 96 94 91 92 95 97 102 99 99 102 105 106 105
52 44 34 28 19 26 14 17 14 20 23 30 29 30 39 53 56 55 55 51 54 55 61 64 67 69 70 74 78 82 77 87 90 92 88 89 90 93 97 98 102 102 102 105 105 106 107 108 111
62 49 39 26 20 18 15 12 13 15 19 24 29 28 25 48 58 57 61 60 63 66 70 65 60 68 73 73 75 77 80 84 87 90 90 95 98 101 103 104 105 104 105 107 109 109 111 114 116
69 55 44 31 16 6 5 10 15 14 19 25 39 41 47 45 53 51 55 57 62 66 70 77 80 75 75 75 77 83 87 87 90 96 99 102 105 106 105 106 106 107 109 111 111 112 112 111 109

GFSSGP_250_spd_105.txt.gz
Wind_Speed
56 57 57 56 55 52 53 52 52 51 49 47 40 37 40 37 39 40 36 35 32 31 33 27 21 32 39 43 43 41 39 38 38 40 42 42 42 41 41 40 40 39 39 39 40 39 35 34 35
61 61 63 63 61 62 61 55 51 50 50 49 43 42 41 45 41 42 40 37 33 33 34 33 34 23 21 31 41 46 46 44 43 42 43 42 42 41 41 42 43 42 41 42 41 42 41 41 40
65 66 67 64 62 66 67 61 59 56 53 52 48 43 46 45 45 44 40 40 37 35 33 37 37 39 28 29 26 34 44 50 49 47 46 47 47 47 46 46 45 45 45 45 44 43 43 43 43
70 67 66 64 66 74 73 67 65 64 60 61 55 51 51 46 44 43 42 42 41 37 37 34 39 37 35 36 28 26 30 41 50 53 50 48 50 49 49 49 48 48 47 47 47 47 46 45 45
73 71 70 67 71 78 80 71 68 66 63 63 58 55 54 51 47 48 43 45 44 41 34 36 37 39 36 39 34 29 31 31 37 48 53 53 52 52 51 50 50 50 49 49 50 51 49 48 46
74 77 73 70 77 80 82 77 73 71 67 67 64 60 59 54 50 49 48 47 48 45 44 46 41 41 40 40 37 38 38 39 40 44 49 53 55 55 55 53 52 52 51 51 51 53 52 51 51
89 82 78 70 81 85 87 83 77 72 70 69 65 63 62 59 54 53 49 51 49 46 48 41 41 48 46 42 42 39 40 44 45 45 47 49 53 56 57 57 57 57 56 56 56 56 57 57 58
97 93 84 82 82 91 93 90 81 76 72 68 68 66 65 66 61 56 54 53 54 44 41 37 38 44 44 42 44 42 41 45 42 47 47 42 43 48 54 56 57 58 59 59 58 59 60 60 60
95 94 91 87 90 92 95 92 84 80 78 71 68 69 67 71 68 57 56 57 54 51 43 46 50 46 43 45 42 45 42 43 39 39 42 46 44 44 43 46 51 56 58 59 60 62 63 63 63
83 87 93 94 97 98 101 97 94 81 78 80 75 75 71 73 70 61 60 57 56 50 51 47 46 45 44 43 43 42 45 43 42 39 40 40 43 46 44 42 44 47 49 52 56 58 59 62 64
77 78 85 98 101 99 101 101 98 91 83 78 76 73 72 74 71 63 61 60 61 50 50 48 52 53 56 49 47 44 48 45 43 41 44 45 44 45 45 47 50 51 52 55 57 57 58 59 58
66 74 79 85 95 105 103 105 101 94 89 86 83 81 75 71 68 66 62 62 50 55 51 54 57 58 60 57 51 56 58 50 48 45 45 47 47 45 47 51 52 52 54 55 58 59 59 59 64
55 64 69 76 85 92 103 106 106 99 95 91 86 86 79 73 70 69 65 65 58 54 47 51 52 57 61 59 58 61 56 54 53 51 47 49 49 49 48 50 53 53 54 53 51 52 54 55 58
44 52 61 70 76 81 88 99 107 105 101 94 87 87 82 77 75 70 63 68 67 56 54 56 61 63 61 69 68 57 53 54 56 53 48 52 53 54 54 55 57 55 52 51 53 54 56 60 59
38 45 51 59 70 76 82 88 96 108 108 100 92 89 86 83 78 74 69 71 64 60 61 52 51 52 55 55 51 54 59 56 56 55 50 50 54 52 51 52 52 48 50 53 57 58 55 51 50
33 40 45 51 56 68 75 81 88 98 108 105 97 95 90 86 81 76 72 66 64 58 51 50 50 48 49 51 52 52 54 53 51 48 48 47 50 52 54 54 44 47 48 51 51 50 53 50 51
31 37 40 46 48 57 66 70 79 86 92 100 105 98 94 88 77 78 72 71 65 68 58 53 47 50 49 49 50 45 46 47 52 53 54 54 55 58 56 52 52 55 52 47 54 55 59 61 63
29 32 39 39 41 48 56 65 75 77 79 87 91 97 98 94 85 76 80 74 70 74 59 52 54 54 57 55 58 49 48 45 52 54 55 56 55 58 59 54 57 54 52 56 60 65 67 68 69
20 24 30 38 40 40 46 54 68 76 74 79 85 87 89 97 94 93 79 74 71 74 63 53 46 48 51 53 52 51 56 47 45 46 55 56 60 59 64 68 66 62 62 65 66 66 70 73 71
13 16 18 24 34 39 44 49 57 67 73 74 81 83 83 81 91 92 87 79 77 77 66 64 62 54 51 45 54 52 50 48 49 55 54 59 64 67 70 56 63 67 68 68 67 72 73 72 73
30 30 25 18 19 28 38 48 55 63 68 70 72 76 79 76 75 75 91 86 83 79 79 68 64 65 63 61 55 55 61 58 60 60 59 61 67 65 60 64 63 63 66 70 64 71 80 83 80
35 32 30 31 31 23 21 38 46 48 57 66 60 63 71 71 69 65 75 88 79 78 76 74 61 57 59 56 57 61 62 60 62 62 64 68 69 67 68 71 75 75 78 79 83 84 85 89 88
40 33 32 34 33 33 26 20 37 38 46 56 53 55 59 63 65 66 65 68 80 77 72 72 72 67 58 60 59 63 64 66 68 68 71 76 77 83 83 84 84 82 83 87 86 87 88 89 92
46 35 30 31 33 33 31 21 22 26 34 46 49 48 53 57 62 62 63 60 58 65 72 72 63 60 55 61 60 44 52 65 62 69 74 78 78 80 81 80 82 81 76 83 87 91 96 98 101
51 38 33 29 30 29 30 22 11 13 21 31 41 42 48 55 56 62 59 53 48 50 56 54 55 61 50 46 46 48 57 52 55 64 75 70 73 72 71 76 84 90 89 93 96 99 101 105 103
60 45 33 30 31 33 34 25 16 5 13 22 31 36 42 53 54 54 52 40 44 49 61 51 47 49 34 41 62 65 65 55 67 73 64 68 74 79 84 89 90 91 92 97 102 106 104 106 102
72 57 42 34 30 30 28 24 19 10 2 16 25 30 37 46 51 53 46 49 41 46 59 64 48 52 49 48 46 57 63 66 72 70 70 79 76 82 87 91 94 97 101 108 107 104 104 107 112
78 71 52 39 32 24 23 24 19 16 4 10 18 27 32 43 54 54 53 52 50 47 42 47 56 59 62 66 66 63 56 66 74 81 80 75 79 85 90 94 96 102 108 109 107 110 114 117 114
78 75 64 47 34 29 20 19 16 12 8 7 19 25 29 37 49 53 56 56 54 49 45 52 59 66 69 74 78 80 84 86 88 76 83 89 91 98 102 107 112 112 111 113 116 117 113 114 114
73 75 71 61 43 29 24 16 10 8 5 7 16 23 25 34 44 53 51 59 59 62 55 57 62 63 70 75 77 81 85 89 91 92 93 96 102 102 107 110 112 114 116 116 111 111 109 109 110

GFSSGP_250_spd_108.txt.gz
Wind_Speed
63 63 60 57 53 54 57 57 53 46 46 48 48 48 47 44 45 38 37 37 39 38 36 32 31 30 24 26 34 41 42 40 39 38 38 38 39 40 40 40 41 42 41 40 40 38 37 35 36
69 67 65 62 58 61 63 61 59 55 50 51 51 52 52 49 44 41 41 36 39 43 41 37 34 34 34 31 24 29 36 44 46 45 43 42 41 40 40 40 40 42 41 40 41 41 41 39 38
74 72 69 65 63 67 73 66 63 60 60 56 54 53 54 53 49 47 41 43 43 42 44 42 36 36 39 37 36 28 28 30 38 45 50 49 48 48 46 44 43 45 45 46 46 45 44 44 43
69 72 75 72 69 76 77 71 67 65 65 58 56 55 55 54 50 49 46 43 41 44 45 45 39 37 38 42 41 36 33 30 25 19 25 31 44 54 53 53 52 50 48 48 48 47 48 47 46
77 75 70 67 72 78 84 80 73 72 68 62 59 60 63 59 57 54 50 47 42 45 45 45 44 39 38 35 41 40 37 33 29 28 30 33 33 37 45 53 56 55 54 53 50 49 49 50 49
83 77 73 72 78 82 86 85 79 75 72 67 64 63 67 66 63 61 58 52 47 47 49 48 46 43 42 41 38 43 43 35 34 31 32 36 37 40 41 46 52 54 55 55 54 53 52 51 52
90 91 84 80 78 87 90 89 81 76 75 72 69 67 67 69 66 64 60 56 53 49 50 51 51 48 44 45 44 41 49 44 38 34 32 36 39 39 41 42 43 49 53 56 56 56 56 55 56
96 96 93 92 88 90 92 93 88 81 79 75 73 69 70 70 68 66 65 61 58 55 52 52 49 46 41 41 38 41 47 47 42 36 33 41 39 39 35 38 42 44 45 50 53 54 56 57 58
80 82 89 94 95 97 99 98 93 82 80 80 74 75 75 73 70 68 66 63 60 58 57 52 52 49 46 42 41 45 46 44 40 38 37 40 43 38 36 34 38 39 42 41 44 47 49 50 52
76 76 77 84 94 101 102 103 100 92 83 77 77 80 79 78 73 70 69 68 64 61 60 55 51 49 45 45 46 42 44 45 42 40 46 45 45 43 42 42 42 41 40 40 43 47 48 47 48
72 76 78 78 83 92 106 104 106 99 94 86 83 77 84 80 77 74 68 67 64 62 63 59 52 53 49 50 48 46 46 47 51 48 50 53 50 46 46 47 47 44 42 43 43 44 48 51 51
60 67 73 75 78 82 92 104 111 104 96 92 87 81 81 79 78 79 75 70 65 64 66 62 54 56 55 50 46 50 50 50 50 53 57 58 58 51 49 51 49 47 47 48 49 51 52 52 52
44 53 59 64 70 75 85 93 97 105 98 95 91 86 86 83 79 77 78 75 71 70 67 62 60 57 55 52 48 51 55 52 55 56 60 62 60 50 51 50 49 50 51 53 52 52 53 51 50
38 42 46 50 58 65 73 86 93 96 107 99 97 91 90 89 87 82 75 74 69 66 64 59 59 58 54 51 51 49 53 56 57 60 61 64 59 54 52 53 51 51 52 51 51 51 42 40 44
32 36 36 41 46 52 61 73 85 91 97 103 102 98 92 90 88 84 79 75 71 67 60 60 60 56 52 50 50 51 56 54 55 58 60 57 53 51 51 54 51 51 50 53 57 47 48 50 46
25 27 32 34 37 42 49 62 75 82 91 93 104 102 96 93 90 86 81 76 71 67 63 58 61 54 57 56 53 54 54 53 50 50 52 55 57 48 48 49 55 56 53 57 54 53 54 50 47
25 24 24 29 32 35 38 48 64 72 80 84 91 98 107 96 94 89 79 76 71 70 64 60 52 62 62 60 57 57 50 44 43 47 54 49 52 55 58 55 55 56 59 54 53 56 56 59 59
22 19 23 23 26 30 34 41 50 61 71 78 81 88 91 99 96 92 88 79 76 70 64 60 58 59 56 57 52 49 51 49 45 50 53 54 56 51 53 54 59 62 57 58 57 60 64 65 63
24 13 14 14 19 23 30 38 46 52 57 67 75 78 82 85 93 98 92 81 77 73 68 62 64 65 62 49 49 46 51 54 56 51 56 59 56 58 62 56 63 60 64 68 67 68 68 69 68
32 25 17 8 10 15 22 28 40 50 54 58 65 69 71 76 79 87 92 86 62 63 68 66 66 62 59 47 46 46 51 53 52 58 55 58 62 68 69 65 58 54 64 58 63 56 62 62 66
43 29 24 22 16 13 18 26 34 41 51 55 58 60 64 68 73 78 83 89 83 72 65 68 68 64 61 43 42 43 36 43 49 50 51 61 68 69 64 68 66 67 65 56 61 62 62 69 70
52 39 29 22 21 24 22 29 32 37 44 54 54 57 61 65 69 74 76 78 83 84 71 67 66 63 56 56 47 44 48 49 53 54 58 68 68 60 61 64 54 59 69 75 76 78 83 80 84
67 50 37 30 26 29 27 30 26 29 32 39 46 49 56 64 67 72 73 73 75 82 79 70 66 64 64 60 63 61 52 49 53 59 62 52 42 64 65 72 75 74 77 74 80 75 73 75 74
76 64 48 40 35 32 28 32 29 23 20 26 32 39 46 60 64 68 72 69 67 72 78 72 67 67 69 65 58 51 43 45 55 48 56 53 62 64 69 75 77 76 78 82 80 77 79 80 85
78 77 62 46 37 36 31 31 21 16 12 14 21 29 39 53 58 58 66 66 64 66 76 79 77 67 65 66 67 58 53 46 52 68 60 60 71 65 74 77 71 78 80 80 79 81 81 87 95
72 76 69 56 42 41 40 31 32 22 11 5 13 24 33 44 50 47 53 59 57 56 54 66 77 77 65 60 63 63 57 54 58 70 75 71 61 68 74 76 89 76 77 76 82 85 91 93 99
71 73 76 69 53 42 39 38 35 29 19 6 9 19 27 39 49 47 48 43 43 40 43 53 62 65 69 59 56 44 55 67 70 72 64 67 69 69 73 80 83 78 79 81 86 88 93 102 108
73 71 69 66 61 48 38 36 35 32 25 12 7 18 29 40 51 51 54 38 38 39 41 43 53 57 60 43 54 57 69 66 74 78 79 86 85 86 84 86 89 89 89 93 97 105 110 114 118
71 70 66 64 63 56 41 33 30 28 24 16 8 16 28 38 51 52 52 48 43 44 43 46 48 53 60 61 59 59 58 73 76 81 81 82 84 87 90 92 94 98 100 103 107 114 117 122 124
68 67 64 63 60 59 49 33 29 24 21 15 8 14 19 25 38 50 55 57 44 45 50 50 54 59 68 71 71 73 66 70 71 74 75 73 74 84 85 89 93 101 105 111 117 119 123 125 127

GFSSGP_250_spd_111.txt.gz
Wind_Speed
67 66 65 62 60 59 62 60 56 53 54 55 53 52 49 49 45 43 44 42 39 38 34 33 31 30 29 31 28 31 32 36 40 39 38 38 39 39 40 40 41 40 41 41 39 39 40 39 39
70 72 71 71 66 65 69 67 60 56 56 54 55 55 51 47 51 51 46 44 45 44 43 42 42 39 35 35 35 28 27 29 33 39 43 44 43 42 42 42 41 41 43 42 40 40 39 39 40
73 73 72 72 69 71 76 73 66 60 60 58 58 55 51 50 49 51 50 48 47 46 45 41 44 45 44 41 37 38 34 28 27 26 29 36 41 46 47 49 49 46 46 46 45 45 44 44 45
74 76 74 74 71 75 79 80 74 66 65 63 60 59 58 55 53 52 54 53 51 48 46 47 42 44 45 45 42 39 40 39 39 34 27 22 20 21 22 27 37 44 50 51 51 52 53 52 50
75 74 71 70 75 77 81 84 79 73 68 68 66 63 62 61 58 56 56 57 55 53 49 48 44 43 46 47 46 41 41 45 44 40 38 26 27 25 25 26 31 33 39 47 51 53 56 57 57
91 88 85 80 76 83 83 85 82 78 75 70 70 68 66 66 62 58 58 58 56 54 52 51 45 43 46 50 49 40 41 39 45 41 40 39 30 29 26 28 32 36 35 38 44 48 50 51 54
78 88 94 90 90 86 86 89 87 83 80 77 73 72 70 70 66 61 62 62 60 59 58 55 52 46 45 47 49 47 40 43 41 44 47 40 35 32 31 31 34 31 24 30 31 35 41 46 48
72 76 77 85 98 94 97 95 94 87 84 77 76 77 77 74 71 68 66 66 67 66 63 60 56 51 44 44 46 46 43 40 47 44 44 48 46 34 33 37 38 35 34 36 42 40 41 42 42
71 69 73 78 80 98 104 102 98 90 86 82 77 77 79 77 75 74 70 69 69 68 64 60 57 55 52 48 48 45 40 36 36 40 38 43 41 37 41 46 42 40 42 41 41 42 42 42 41
61 67 70 72 76 80 92 106 107 101 93 85 80 83 81 79 78 75 76 75 73 69 63 61 59 56 55 51 50 48 43 42 43 39 39 40 41 40 46 46 47 45 45 44 45 44 44 44 44
46 52 60 69 74 79 84 89 101 107 100 100 90 84 82 81 82 78 79 76 73 71 66 63 61 60 58 54 53 50 47 46 46 44 38 39 40 43 45 49 47 48 46 46 45 45 45 45 48
39 41 46 54 62 68 78 84 88 95 107 104 98 91 85 82 82 79 85 81 72 70 67 66 63 61 59 56 55 54 52 46 47 43 43 44 46 46 49 49 51 50 48 45 45 46 46 46 49
34 38 37 42 51 56 65 75 83 85 91 99 107 98 91 89 88 83 82 80 76 73 69 65 63 61 58 58 59 57 54 50 45 47 45 46 48 52 51 52 53 56 51 46 44 45 46 49 48
29 29 34 36 38 43 51 61 69 82 85 86 92 103 96 93 93 89 83 76 78 75 73 69 64 61 59 60 61 58 50 47 46 46 47 49 50 53 53 53 59 56 47 46 44 45 48 51 50
30 22 22 30 35 38 41 46 56 67 77 84 83 88 103 97 95 91 91 87 79 75 73 72 67 65 64 62 61 54 52 51 47 47 47 49 53 51 56 58 55 49 48 47 52 49 50 50 51
38 24 14 16 25 32 36 42 45 51 62 74 80 83 87 100 98 95 93 87 81 70 72 71 69 67 66 63 57 53 54 50 48 46 50 53 54 53 48 46 46 45 53 52 53 54 49 54 59
37 32 27 16 14 21 29 35 37 42 50 60 69 78 83 87 94 100 96 89 84 76 71 65 66 65 62 59 49 52 54 56 53 52 55 55 43 42 43 45 46 55 56 48 50 55 61 62 60
46 36 25 22 16 14 20 29 32 35 44 50 58 67 78 84 87 94 99 92 87 83 75 59 57 61 58 57 53 55 56 53 55 54 48 49 50 50 50 55 60 65 69 69 66 65 64 57 53
57 44 33 23 18 16 14 19 27 33 35 42 50 59 67 77 84 86 97 94 89 84 74 72 65 61 57 56 52 59 53 52 51 47 48 51 51 49 49 54 57 56 61 65 66 55 50 52 55
63 50 40 30 21 19 14 17 23 30 38 41 45 52 61 70 79 84 89 96 91 83 71 65 67 65 62 57 54 49 47 47 44 45 51 48 44 45 54 62 59 60 66 57 54 52 53 55 54
66 59 45 35 30 27 19 16 19 25 33 40 45 51 54 61 73 82 84 88 96 85 78 70 64 65 59 51 45 45 49 47 47 52 45 42 50 58 53 55 65 57 46 48 47 54 41 55 60
67 62 53 40 33 27 23 26 29 27 24 33 43 44 53 57 66 75 81 80 81 86 71 61 68 65 59 55 49 38 47 41 31 36 43 46 48 66 64 56 51 50 47 48 59 57 66 67 72
66 65 59 48 38 38 34 30 33 29 27 22 33 30 44 55 60 70 76 78 77 75 78 73 63 64 59 60 43 48 44 39 42 46 43 49 57 61 52 50 58 57 59 56 60 72 73 76 72
69 66 64 59 48 38 31 28 29 28 22 20 23 22 32 49 56 61 69 71 71 70 70 71 64 55 57 59 69 67 53 54 51 48 46 50 59 67 64 53 64 69 73 71 75 77 74 74 75
68 66 65 63 54 43 38 30 31 33 22 12 11 18 24 41 50 54 62 65 66 66 67 69 68 61 57 59 63 64 65 56 60 55 52 46 54 74 65 68 69 63 67 73 81 78 78 81 80
65 63 63 64 64 52 46 36 34 34 23 11 1 12 25 35 49 52 54 58 60 62 64 72 74 66 63 61 58 59 66 66 67 63 64 75 69 77 78 83 72 70 75 82 81 80 78 78 71
64 62 63 66 63 60 50 45 36 36 32 20 7 11 23 33 46 49 47 53 53 56 60 65 74 71 67 65 64 68 68 71 71 70 71 70 75 77 83 77 78 77 80 81 80 82 85 89 93
62 63 61 60 62 63 57 50 44 33 32 26 12 9 16 30 42 42 42 44 41 39 47 49 68 77 73 68 67 63 65 58 52 60 71 72 68 71 84 82 78 83 87 93 89 90 93 98 100
64 64 61 60 59 59 59 53 46 36 32 29 16 10 16 27 35 36 39 40 36 41 51 53 52 70 80 77 71 71 64 66 70 71 61 63 72 78 86 90 89 87 90 93 93 95 96 99 103
60 62 64 61 57 58 59 57 49 42 30 26 21 9 13 17 25 37 42 45 49 49 51 48 51 54 65 77 75 55 63 75 69 68 70 72 74 76 82 87 90 88 87 90 94 97 101 109 112

GFSSGP_250_spd_114.txt.gz
Wind_Speed
67 68 67 67 66 63 64 65 61 59 56 54 54 52 51 51 53 50 44 43 41 37 34 34 35 33 35 32 33 33 33 34 37 39 41 41 40 39 39 39 40 41 41 41 42 42 42 41 41
71 72 72 70 70 70 71 73 69 62 60 60 58 56 56 54 53 55 52 48 46 44 42 40 39 36 37 36 36 36 34 33 32 33 35 38 40 43 44 42 41 41 40 41 41 42 43 43 41
70 72 76 75 71 72 76 79 75 71 66 64 62 60 59 58 57 57 56 53 53 49 47 46 45 44 44 44 43 38 35 37 38 35 34 33 31 33 34 37 40 43 42 45 46 47 48 48 47
70 70 72 75 77 79 78 82 77 77 74 72 66 64 61 60 60 59 59 58 55 56 53 50 47 45 45 47 46 45 46 44 43 42 35 32 30 29 29 27 26 24 26 30 36 41 45 51 53
75 76 74 74 74 79 87 87 84 77 76 76 73 68 65 64 62 61 58 56 54 55 54 52 51 50 49 47 45 44 45 46 46 45 43 44 41 35 30 31 27 24 21 26 29 32 34 36 40
74 83 85 82 81 81 82 89 86 84 80 77 77 74 71 69 69 66 64 62 60 57 55 55 54 54 52 49 47 44 42 45 44 46 47 45 45 45 42 34 30 28 24 26 24 23 20 22 29
69 72 73 79 89 96 93 90 91 84 81 79 78 79 77 75 74 72 68 65 64 62 59 58 58 56 56 52 46 44 43 43 47 46 45 45 45 47 45 41 32 37 35 30 27 33 35 34 36
65 69 73 74 78 83 96 102 99 90 85 79 83 81 81 80 78 73 72 69 66 65 61 60 60 59 57 53 49 45 43 43 42 44 46 48 45 43 46 48 42 40 39 36 35 34 35 33 36
58 60 65 71 74 78 85 93 103 106 97 90 82 85 83 83 82 79 75 74 70 69 65 62 61 61 59 57 53 50 47 44 41 41 42 40 39 41 41 45 47 41 42 45 41 41 40 36 36
46 48 52 60 68 72 81 86 90 93 101 99 93 85 86 83 82 81 80 78 74 73 69 66 65 64 62 61 60 54 52 48 46 44 43 39 39 38 39 40 40 37 40 46 43 41 39 38 38
32 34 42 48 53 63 73 80 88 89 89 101 101 95 88 86 82 82 79 78 79 77 74 71 68 66 65 64 61 57 54 50 48 47 46 46 46 45 40 40 41 42 42 43 44 41 41 39 39
28 26 29 37 43 48 60 70 81 87 88 88 97 97 91 86 84 87 82 73 81 80 79 74 72 69 67 63 60 58 53 51 50 50 49 48 47 49 46 42 45 45 44 46 43 46 47 42 38
38 29 26 28 32 40 46 56 67 77 86 87 87 94 97 97 91 90 86 82 77 81 80 77 74 72 67 66 60 57 55 55 49 51 53 49 49 49 48 47 45 46 48 46 46 48 48 40 37
44 35 29 25 26 32 39 44 54 64 74 82 87 83 90 102 96 94 89 85 80 81 82 79 75 72 68 65 63 58 56 56 51 52 55 54 52 49 46 47 47 48 48 47 48 49 41 39 42
48 39 32 24 24 26 32 39 44 49 59 70 79 84 82 86 102 98 98 95 89 87 84 80 74 73 70 62 60 58 58 54 52 55 57 54 51 46 46 43 47 48 49 49 45 39 38 43 41
52 41 32 29 21 21 26 32 34 37 44 55 66 76 82 82 87 103 103 99 95 88 82 78 75 73 69 67 62 60 58 54 55 56 53 53 49 47 44 47 47 51 48 46 44 45 48 49 51
56 47 36 29 27 20 21 24 28 31 34 41 50 63 74 81 84 88 101 103 96 94 83 65 81 70 62 61 61 61 59 56 53 54 54 51 48 46 50 52 52 44 46 46 46 47 54 61 60
58 55 42 31 27 21 21 23 21 25 31 36 43 52 63 73 82 83 90 98 100 96 90 87 75 72 65 63 64 63 60 58 56 53 56 50 51 51 52 53 49 49 49 50 55 60 66 65 65
59 57 51 38 28 22 19 21 25 23 27 34 38 46 53 64 76 83 85 88 92 95 96 92 88 78 73 64 62 62 58 57 51 49 49 50 49 47 50 51 51 51 52 55 61 66 65 64 61
56 57 58 46 31 25 21 18 19 24 29 29 37 43 50 57 68 80 86 85 85 93 92 93 87 77 68 63 61 57 57 56 52 51 52 52 49 50 52 50 46 50 50 63 71 70 61 59 49
58 58 56 55 44 32 22 18 16 19 21 28 34 41 47 54 61 73 82 85 83 87 91 90 84 74 70 61 56 55 49 52 53 52 47 45 44 49 49 51 48 46 62 68 62 59 58 62 56
60 58 57 54 50 40 30 23 25 25 26 23 29 36 42 51 56 67 75 82 84 83 87 87 83 77 70 64 61 59 59 52 53 53 48 53 50 49 50 53 55 62 62 55 54 56 57 62 58
61 60 58 60 58 49 38 30 31 30 25 24 19 29 36 43 51 57 70 75 80 81 81 81 72 61 65 58 61 58 56 52 49 47 50 48 40 44 49 49 49 56 58 54 56 60 62 67 67
64 62 62 60 58 55 39 32 32 31 28 23 17 17 25 33 44 49 60 69 73 78 78 76 72 64 46 58 58 57 58 56 53 50 44 43 48 50 54 47 57 56 62 66 69 67 66 70 72
67 67 62 61 59 59 51 39 27 31 26 22 16 8 17 27 37 46 49 60 67 71 75 73 74 64 56 57 58 58 57 55 49 50 50 49 54 52 50 55 57 61 62 67 70 69 73 73 73
64 67 66 64 63 61 59 49 40 38 29 23 13 2 15 23 30 39 40 48 58 64 68 69 67 70 59 58 60 59 60 60 62 54 51 52 51 63 68 63 67 67 63 67 65 69 74 75 79
61 66 71 69 63 62 61 57 44 36 33 30 18 4 12 21 26 34 39 39 48 57 62 65 63 70 61 61 64 64 62 68 72 69 67 64 61 60 61 64 67 68 76 80 84 85 83 84 82
57 62 67 69 68 64 62 61 55 42 39 34 23 13 4 14 21 30 34 33 37 50 58 59 60 73 65 62 66 67 71 72 69 74 77 80 82 78 80 79 79 80 84 91 90 86 91 94 91
52 58 62 68 68 66 62 61 58 49 37 34 29 20 8 11 21 29 31 29 38 41 51 57 61 74 68 68 69 70 68 67 68 68 73 76 77 78 80 78 79 81 81 86 87 90 93 95 98
47 53 57 64 67 67 66 59 57 53 43 30 29 23 16 3 14 26 27 28 37 37 42 52 59 76 76 69 68 69 63 62 69 74 75 75 76 78 77 74 76 76 80 87 89 89 94 98 103

GFSSGP_250_spd_120.txt.gz
Wind_Speed
59 60 59 60 61 63 67 69 67 66 70 67 62 66 63 60 57 54 52 51 49 47 44 43 40 42 39 37 38 39 38 37 38 38 37 35 36 37 38 37 37 37 38 38 40 40 41 39 37
57 57 60 62 64 66 72 74 72 72 74 67 70 68 69 66 57 57 55 55 52 50 48 46 42 41 41 38 36 37 35 34 35 34 34 35 34 33 34 33 32 33 32 35 35 34 34 36 38
57 60 61 64 65 69 74 79 80 75 77 75 77 75 73 64 62 64 61 59 56 56 52 51 47 45 42 38 37 36 36 35 35 34 33 34 34 33 34 34 35 38 36 36 36 34 36 35 35
59 61 66 72 72 74 76 83 86 82 79 79 81 80 76 71 69 67 65 63 58 59 58 55 54 52 50 49 42 40 40 40 39 38 37 36 37 36 36 36 38 39 35 34 35 35 37 34 34
53 57 58 59 62 70 81 85 86 84 81 85 84 84 79 77 74 73 71 69 64 62 61 60 57 56 54 51 50 48 46 46 45 43 43 43 42 42 43 41 38 36 38 39 39 39 38 34 32
52 54 58 62 67 69 71 78 87 85 80 86 90 84 81 82 80 78 75 73 71 67 64 62 61 59 57 55 53 53 51 51 50 48 47 46 44 43 40 38 38 37 37 39 42 41 39 42 41
49 53 56 55 56 65 75 81 74 78 86 90 94 86 81 81 83 83 81 79 76 73 69 65 65 63 61 58 57 57 56 54 52 49 48 47 44 42 42 40 41 39 40 41 41 39 42 45 45
54 59 60 59 61 64 66 76 80 76 80 95 84 79 74 55 85 88 86 82 81 78 76 70 68 68 66 63 62 60 58 54 53 52 50 48 48 47 45 42 39 39 39 40 39 41 42 46 48
58 60 58 55 53 56 52 57 70 80 82 86 92 89 73 63 37 72 91 84 85 83 79 75 71 69 69 68 66 64 61 57 55 51 50 49 50 49 45 45 40 40 39 40 38 37 39 42 45
58 58 56 51 44 42 46 48 55 65 79 84 84 85 84 93 83 53 70 71 88 86 83 79 76 71 69 70 69 67 66 62 57 53 52 52 51 49 47 45 42 43 43 41 39 39 40 41 42
53 55 52 51 45 36 38 43 46 50 63 78 83 83 84 101 90 72 81 75 60 83 78 84 78 73 70 69 70 68 64 61 60 57 55 55 54 55 49 45 48 47 46 43 40 40 42 44 47
51 52 51 50 44 34 30 34 36 39 53 64 75 81 85 94 101 100 91 89 84 61 68 83 79 77 71 69 69 72 67 65 63 60 57 58 58 58 53 50 49 49 48 47 44 42 43 44 47
51 51 50 49 43 34 27 25 28 35 42 52 61 75 84 86 95 100 100 91 82 53 53 60 75 76 74 76 73 72 72 67 66 61 60 60 60 61 58 52 52 50 50 48 46 48 46 45 47
51 51 51 49 45 34 25 24 21 28 35 43 54 62 74 82 86 96 103 97 90 76 70 58 65 73 61 74 76 72 73 70 66 64 63 61 63 61 60 53 55 52 54 51 49 48 49 47 43
55 50 52 54 48 36 26 22 20 20 25 35 42 52 61 70 81 88 94 102 97 97 91 78 71 66 79 80 80 80 73 70 64 64 65 64 63 63 59 54 54 57 59 54 53 51 51 46 48
61 54 50 51 51 44 31 24 20 19 20 26 35 44 49 58 72 81 89 95 101 97 91 81 71 68 68 79 76 76 67 71 68 62 67 65 64 63 62 62 60 56 54 53 52 50 50 49 46
57 59 56 53 54 50 38 29 21 20 20 20 26 36 45 49 59 73 82 88 95 101 91 82 73 68 56 53 71 73 73 69 67 68 67 66 68 67 64 63 63 63 59 56 54 51 50 49 48
61 64 63 56 56 52 44 33 25 20 18 18 21 28 37 46 51 60 71 82 88 92 97 91 80 82 74 63 63 66 67 70 69 69 71 69 69 70 67 62 61 63 61 60 59 58 56 50 49
60 63 64 61 55 53 52 40 29 23 20 20 21 21 32 41 47 50 59 71 81 85 87 93 80 69 70 70 74 68 72 69 68 72 71 69 69 67 66 63 64 64 64 61 56 57 55 51 52
56 60 64 64 58 52 54 47 33 28 29 26 23 24 25 36 43 47 55 65 72 79 80 80 86 69 53 54 57 64 70 71 72 74 74 71 68 67 63 62 59 57 57 59 58 57 54 57 61
53 59 64 66 65 60 54 49 36 28 29 31 27 23 25 29 39 46 46 52 62 74 77 71 82 75 52 44 56 50 56 63 68 76 78 77 69 66 64 63 63 62 65 66 62 60 59 62 62
50 55 60 66 69 66 60 54 43 32 30 27 25 21 18 28 31 41 44 46 56 69 70 64 68 66 57 45 50 61 61 58 57 61 71 76 76 71 72 64 62 63 63 63 58 59 61 61 57
48 53 58 63 67 68 63 60 61 46 39 29 18 16 15 20 25 32 42 41 50 57 66 65 78 67 42 37 43 54 56 52 55 64 52 57 67 69 70 68 66 64 65 64 63 59 62 63 60
46 51 55 62 65 67 69 70 59 49 46 39 29 17 11 13 15 25 35 36 44 56 70 66 76 60 52 50 43 40 52 53 61 63 68 61 54 58 63 65 64 65 65 61 62 64 67 67 65
45 48 52 58 64 70 74 69 61 57 50 47 38 25 15 3 7 20 25 31 43 64 80 84 82 75 67 56 58 53 56 54 60 65 73 74 67 60 63 63 63 62 65 66 67 65 65 65 65
43 47 50 53 60 66 71 69 70 65 55 49 45 36 23 12 13 26 30 35 46 64 83 86 86 73 63 66 58 47 50 49 52 66 59 67 67 69 63 61 61 61 61 64 64 64 68 68 69
41 44 48 52 56 60 62 69 69 67 64 55 50 46 31 19 16 22 15 30 44 63 86 95 98 78 65 67 63 71 60 51 49 60 63 67 64 66 65 66 62 59 60 60 60 64 67 69 69
38 43 46 50 52 56 62 67 72 69 66 61 55 46 42 27 9 21 22 29 41 57 76 100 102 99 83 76 72 68 50 47 51 59 59 64 63 65 67 69 68 68 65 65 67 69 69 73 77
37 40 44 47 51 54 58 62 65 70 67 63 57 51 42 35 33 12 7 21 35 46 68 87 110 110 108 95 77 68 58 53 58 59 63 68 67 65 68 70 69 69 70 72 73 73 76 76 77
37 37 41 44 47 50 54 56 60 63 67 65 59 54 50 39 28 24 21 4 16 33 49 70 93 107 109 112 97 86 69 74 65 67 67 71 77 74 70 74 68 70 73 76 78 82 83 81 85